Home   Weather   Bad Kreuznach   Past weeks

Flag for Germany Past Weather in Bad Kreuznach, Rhineland-Palatinate, Germany — Yesterday and Last 2 Weeks

Now
28 °F

Clear.


Feels Like: 20 °F
Forecast: 20 / 28 °F
Wind: 9 mph from Northeast

Location: Wiesbaden Airport

Current Time: Jan 18, 2017 at 12:38:26 am

Latest Report: Jan 17, 2017 at 11:58 pm


Visibility: N/A

Pressure: 30.66 "Hg

Humidity: 64%

Dew Point: 18 °F

Location of Bad KreuznachLocation

Past Weather in Bad Kreuznach — Graph

°F

Bad Kreuznach Temperature Yesterday

Maximum temperature yesterday: 34 °F (at 2:58 pm)
Minimum temperature yesterday: 23 °F (at 12:58 am)
Average temperature yesterday: 29 °F

High & Low Weather Summary for the Past Weeks

 TemperatureHumidityPressure
High43 °F (Jan 13, 2:06 am)100% (Jan 4, 10:58 pm)30.80 "Hg (Jan 4, 10:58 pm)
Low14 °F (Jan 7, 3:58 am)50% (Jan 17, 1:58 pm)29.13 "Hg (Jan 13, 2:06 am)
Average32 °F86%30.09 "Hg
* Reported Jan 2 10:44 pm — Jan 17 10:58 pm, Bad Kreuznach, Weather by CustomWeather, © 2017

Note: Actual official high and low records may vary slightly from our data, if they occured in-between our weather recording intervals... More about our weather records

Advertising

Bad Kreuznach Weather History for the Previous 24 Hours

Scroll right to see more
 ConditionsComfort  
Time TempWeatherWind HumidityBarometerVisibility
10:58 pm
Tue, Jan 17
28 °FClear.9 mph64%30.65 "HgN/A
9:58 pm28 °FClear.12 mph62%30.65 "HgN/A
8:58 pm28 °FClear.10 mph64%30.65 "HgN/A
7:58 pm28 °FClear.9 mph64%30.65 "HgN/A
6:58 pm28 °FClear.9 mph69%30.64 "HgN/A
5:58 pm30 °FClear.10 mph59%30.61 "HgN/A
4:58 pm31 °FClear.8 mph58%30.60 "HgN/A
3:58 pm32 °FPassing clouds.9 mph55%30.60 "HgN/A
2:58 pm34 °FPassing clouds.10 mph51%30.60 "HgN/A
1:58 pm33 °FSunny.9 mph50%30.59 "HgN/A
12:58 pm32 °FSunny.10 mph55%30.60 "HgN/A
11:58 am33 °FPassing clouds.10 mph52%30.60 "HgN/A
10:58 am32 °FPartly sunny.9 mph55%30.60 "HgN/A
9:58 am30 °FOvercast.13 mph59%30.56 "HgN/A
8:58 am29 °FOvercast.8 mph62%30.55 "HgN/A
7:58 am28 °FOvercast.7 mph64%30.53 "HgN/A
6:58 am28 °FOvercast.5 mph64%30.52 "HgN/A
5:58 am28 °FOvercast.5 mph64%30.51 "HgN/A
4:58 am27 °FOvercast.7 mph74%30.50 "HgN/A
3:58 am27 °FOvercast.7 mph74%30.49 "HgN/A
3:23 am27 °FOvercast.7 mph74%30.49 "HgN/A
2:58 am25 °FOvercast.7 mph80%30.49 "HgN/A
1:58 am24 °FPassing clouds.9 mph81%30.47 "HgN/A
12:58 am23 °FClear.5 mph80%30.46 "HgN/A
Weather by CustomWeather, © 2017

See weather overviewHow to use our weather pages